Find Starlink 30711

NORAD ID: 57940 Int'l Des: 2023-148 Owner: SPXS Country: US Constellation: starlink operational
LEOCIRCULAR

Current View

Loading 3D Globe...

About Starlink 30711

Starlink 30711 (NORAD 57940) is a starlink constellation satellite (v2 mini) launched Sep 25, 2023 by SPXS of US. It operates in LEO, CIRCULAR orbit with a mass of 730.00 kg.

Upcoming Passes

Passes for default location (London). Set your location on the main map for personalized predictions.

Altitude History

Loading altitude history...

Two-Line Element Set

1 57940U 23148F 26264.08645499 .00000134 00000-0 15098-4 0 9993
2 57940 53.1616 194.8255 0001550 86.4310 273.6870 15.34389366168361
Epoch: Sep 21, 2026 • Age: 26 hours

Current Status

Altitude 462.6 km
Apogee / Perigee N/A
Velocity 7.64 km/s
Sub-Earth Point 13.05°N, 58.11°W
Launch Date Sep 25, 2023
Age 2.9 years
Type internet

Technical Details

Classification Payload
Mass 730.00 kg
Dry Mass 700.00 kg
Length 0.30 m
Span 29.00 m
Shape ? Box + pan
Manufacturer SPXS
Bus Type Starlink V2M
Phase Status In Orbit
Owner/State SPXS/US

Most Searched